Weather History for Woodward, OK

Change the Weather History Date:

Thursday, January 23, 2014

  Actual Average (KGAG) Record (KGAG)
Temperature  
Mean Temperature 19 °F -  
Max Temperature 28 °F 51 °F 73 °F (1967)
Min Temperature 8 °F 21 °F -6 °F (1966)
Degree Days  
Heating Degree Days 46    
Moisture  
Dew Point -6 °F    
Average Humidity 37    
Maximum Humidity 58    
Minimum Humidity 26    
Precipitation  
Precipitation 0.00 in - - ()
Sea Level Pressure  
Sea Level Pressure 30.66 in    
Wind  
Wind Speed 15 mph (North)    
Max Wind Speed 22 mph    
Max Gust Speed 31 mph    
Visibility 10 miles    
Events      
Averages and records for this station are not official NWS values.
T = Trace of Precipitation, MM = Missing Value Source: NWS Daily Summary

Daily Weather History Graph

Daily Weather History Graph

Search for Another Location

Airport:

Trip Planner

Search our weather history database for the weather conditions in past years. The results will help you decide how hot, cold, wet, or windy it might be!

Date:

Astronomy

Jan. 23, 2014 Rise Set
Actual Time 7:45 AM CST 5:54 PM CST
Civil Twilight 7:17 AM CST 6:22 PM CST
Nautical Twilight 6:46 AM CST 6:53 PM CST
Astronomical Twilight 6:16 AM CST 7:24 PM CST
Moon 12:15 AM CST (1/23) 11:34 AM CST (1/23)
Length of Visible Light 11h 04m
Length of Day
10h 09m
Waning Gibbous, 55% of the Moon is Illuminated
Jan 23
Waning Gibbous
Jan 23
Last Quarter
Jan 30
New
Feb 6
First Quarter
Feb 14
Full

Hourly Weather History & Observations

Time (CST) Temp. Windchill Dew Point Humidity Pressure Visibility Wind Dir Wind Speed Gust Speed Precip Events Conditions
12:15 AM 28.4 °F 15.4 °F 14.0 °F 55% 30.37 in 10.0 mi NE 19.6 mph 31.1 mph N/A   Clear
12:35 AM 28.4 °F 15.1 °F 14.0 °F 55% 30.39 in 10.0 mi NE 20.7 mph 29.9 mph N/A   Clear
12:55 AM 28.4 °F 15.8 °F 14.0 °F 55% 30.39 in 10.0 mi NNE 18.4 mph 25.3 mph N/A   Clear
1:15 AM 26.6 °F 14.3 °F 12.2 °F 55% 30.41 in 10.0 mi NE 16.1 mph - N/A   Clear
1:35 AM 26.6 °F 13.4 °F 10.4 °F 51% 30.43 in 10.0 mi NNE 18.4 mph 25.3 mph N/A   Clear
1:55 AM 23.0 °F 8.7 °F 6.8 °F 50% 30.44 in 10.0 mi NNE 18.4 mph 26.5 mph N/A   Clear
2:15 AM 21.2 °F 6.8 °F 6.8 °F 54% 30.45 in 10.0 mi NNE 17.3 mph 20.7 mph N/A   Clear
2:35 AM 21.2 °F 6.8 °F 5.0 °F 50% 30.46 in 10.0 mi NNE 17.3 mph 21.9 mph N/A   Clear
2:55 AM 19.4 °F 4.5 °F -0.4 °F 42% 30.47 in 10.0 mi NNE 17.3 mph - N/A   Clear
3:15 AM 19.4 °F 4.5 °F -5.8 °F 33% 30.48 in 10.0 mi NNE 17.3 mph 25.3 mph N/A   Clear
3:35 AM 17.6 °F 2.7 °F -7.6 °F 32% 30.49 in 10.0 mi NNE 16.1 mph - N/A   Clear
3:55 AM 17.6 °F 5.0 °F -5.8 °F 35% 30.51 in 10.0 mi NNE 11.5 mph - N/A   Scattered Clouds
4:15 AM 17.6 °F 3.7 °F -5.8 °F 35% 30.52 in 10.0 mi NNE 13.8 mph 21.9 mph N/A   Mostly Cloudy
4:35 AM 15.8 °F 2.1 °F -7.6 °F 35% 30.53 in 10.0 mi NNE 12.7 mph - N/A   Overcast
4:55 AM 17.6 °F 3.2 °F -5.8 °F 35% 30.54 in 10.0 mi NNE 15.0 mph 19.6 mph N/A   Overcast
5:15 AM 15.8 °F 0.3 °F -5.8 °F 38% 30.54 in 10.0 mi NNE 16.1 mph 23.0 mph N/A   Overcast
5:35 AM 14.0 °F -3.0 °F -7.6 °F 38% 30.56 in 10.0 mi NNE 18.4 mph 25.3 mph N/A   Overcast
5:55 AM 14.0 °F -4.3 °F -11.2 °F 32% 30.57 in 10.0 mi NNE 21.9 mph 29.9 mph N/A   Overcast
6:15 AM 14.0 °F -3.4 °F -7.6 °F 38% 30.58 in 10.0 mi North 19.6 mph 24.2 mph N/A   Overcast
6:35 AM 14.0 °F -1.4 °F -7.6 °F 38% 30.60 in 10.0 mi NNE 15.0 mph - N/A   Overcast
6:55 AM 14.0 °F -2.5 °F -9.4 °F 35% 30.61 in 10.0 mi NNE 17.3 mph - N/A   Overcast
7:15 AM 14.0 °F -2.0 °F -9.4 °F 35% 30.64 in 10.0 mi North 16.1 mph - N/A   Overcast
7:35 AM 12.2 °F -5.3 °F -11.2 °F 34% 30.66 in 10.0 mi NNE 18.4 mph 24.2 mph N/A   Overcast
7:55 AM 12.2 °F -1.8 °F -9.4 °F 38% 30.67 in 10.0 mi North 11.5 mph - N/A   Overcast
8:15 AM 12.2 °F -4.8 °F -9.4 °F 38% 30.68 in 10.0 mi North 17.3 mph 21.9 mph N/A   Overcast
8:35 AM 12.2 °F -3.1 °F -9.4 °F 38% 30.68 in 10.0 mi North 13.8 mph - N/A   Overcast
8:55 AM 12.2 °F -3.1 °F -11.2 °F 34% 30.70 in 10.0 mi NNE 13.8 mph 19.6 mph N/A   Overcast
9:15 AM 14.0 °F 0.5 °F -9.4 °F 35% 30.71 in 10.0 mi NNE 11.5 mph 20.7 mph N/A   Overcast
9:35 AM 14.0 °F -0.2 °F -9.4 °F 35% 30.73 in 10.0 mi NNE 12.7 mph 19.6 mph N/A   Overcast
9:55 AM 14.0 °F -3.0 °F -11.2 °F 32% 30.75 in 10.0 mi NNE 18.4 mph 24.2 mph N/A   Overcast
10:15 AM 14.0 °F -0.8 °F -9.4 °F 35% 30.76 in 10.0 mi North 13.8 mph 19.6 mph N/A   Mostly Cloudy
10:35 AM 15.8 °F 1.4 °F -9.4 °F 32% 30.77 in 10.0 mi NNE 13.8 mph - N/A   Clear
10:55 AM 15.8 °F 2.7 °F -9.4 °F 32% 30.78 in 10.0 mi North 11.5 mph 21.9 mph N/A   Clear
11:15 AM 17.6 °F 2.7 °F -5.8 °F 35% 30.78 in 10.0 mi North 16.1 mph 23.0 mph N/A   Mostly Cloudy
11:35 AM 15.8 °F 1.4 °F 3.2 °F 58% 30.79 in 10.0 mi North 13.8 mph - N/A   Mostly Cloudy
11:55 AM 17.6 °F 2.7 °F 1.4 °F 49% 30.79 in 10.0 mi North 16.1 mph - N/A   Mostly Cloudy
12:15 PM 17.6 °F 3.7 °F -0.4 °F 45% 30.77 in 10.0 mi North 13.8 mph - N/A   Scattered Clouds
12:35 PM 17.6 °F 3.2 °F -5.8 °F 35% 30.77 in 10.0 mi North 15.0 mph 23.0 mph N/A   Clear
12:55 PM 17.6 °F 3.2 °F -9.4 °F 30% 30.77 in 10.0 mi North 15.0 mph 18.4 mph N/A   Clear
1:15 PM 19.4 °F 7.2 °F -7.6 °F 30% 30.76 in 10.0 mi North 11.5 mph - N/A   Clear
1:35 PM 19.4 °F 6.0 °F -7.6 °F 30% 30.75 in 10.0 mi North 13.8 mph 19.6 mph N/A   Clear
1:55 PM 19.4 °F 6.6 °F -9.4 °F 28% 30.75 in 10.0 mi North 12.7 mph 18.4 mph N/A   Clear
2:15 PM 19.4 °F 5.5 °F -9.4 °F 28% 30.74 in 10.0 mi North 15.0 mph 18.4 mph N/A   Clear
2:35 PM 19.4 °F 6.6 °F -9.4 °F 28% 30.74 in 10.0 mi North 12.7 mph 17.3 mph N/A   Clear
2:55 PM 19.4 °F 6.0 °F -9.4 °F 28% 30.74 in 10.0 mi North 13.8 mph - N/A   Clear
3:15 PM 21.2 °F 9.5 °F -9.4 °F 26% 30.74 in 10.0 mi NNE 11.5 mph - N/A   Clear
3:35 PM 19.4 °F 7.2 °F -9.4 °F 28% 30.74 in 10.0 mi North 11.5 mph - N/A   Clear
3:55 PM 21.2 °F 11.7 °F -9.4 °F 26% 30.74 in 10.0 mi North 8.1 mph - N/A   Clear
4:15 PM 21.2 °F 10.9 °F -9.4 °F 26% 30.74 in 10.0 mi NNW 9.2 mph - N/A   Clear
4:35 PM 21.2 °F 13.6 °F -9.4 °F 26% 30.74 in 10.0 mi North 5.8 mph - N/A   Clear
4:55 PM 21.2 °F 13.6 °F -9.4 °F 26% 30.74 in 10.0 mi North 5.8 mph - N/A   Clear
5:15 PM 21.2 °F 13.6 °F -9.4 °F 26% 30.74 in 10.0 mi North 5.8 mph - N/A   Clear
5:35 PM 21.2 °F 13.6 °F -9.4 °F 26% 30.74 in 10.0 mi North 5.8 mph - N/A   Clear
5:55 PM 19.4 °F - -9.4 °F 28% 30.74 in 10.0 mi Calm Calm - N/A   Clear
6:15 PM 17.6 °F 12.3 °F -9.4 °F 30% 30.74 in 10.0 mi NNW 3.5 mph - N/A   Clear
6:35 PM 17.6 °F 12.3 °F -9.4 °F 30% 30.74 in 10.0 mi North 3.5 mph - N/A   Clear
6:55 PM 17.6 °F 9.3 °F -9.4 °F 30% 30.73 in 10.0 mi North 5.8 mph - N/A   Clear
7:15 PM 14.0 °F 6.5 °F -9.4 °F 35% 30.73 in 10.0 mi North 4.6 mph - N/A   Clear
7:35 PM 17.6 °F 12.3 °F -9.4 °F 30% 30.73 in 10.0 mi NNE 3.5 mph - N/A   Clear
7:55 PM 17.6 °F - -9.4 °F 30% 30.73 in 10.0 mi Calm Calm - N/A   Clear
8:35 PM 17.6 °F - -9.4 °F 30% 30.72 in 10.0 mi Calm Calm - N/A   Clear
8:55 PM 12.2 °F - -7.6 °F 41% 30.72 in 10.0 mi Calm Calm - N/A   Clear
9:15 PM 10.4 °F 2.2 °F -7.6 °F 44% 30.72 in 10.0 mi SW 4.6 mph - N/A   Clear
9:55 PM 10.4 °F -1.5 °F -7.6 °F 44% 30.71 in 10.0 mi SSW 8.1 mph - N/A   Clear
10:15 PM 10.4 °F -1.5 °F -7.6 °F 44% 30.71 in 10.0 mi SSW 8.1 mph - N/A   Clear
10:35 PM 10.4 °F -1.5 °F -7.6 °F 44% 30.71 in 10.0 mi SSW 8.1 mph - N/A   Clear
10:55 PM 10.4 °F -2.4 °F -7.6 °F 44% 30.70 in 10.0 mi SSW 9.2 mph - N/A   Clear
11:15 PM 10.4 °F -2.4 °F -7.6 °F 44% 30.71 in 10.0 mi SW 9.2 mph - N/A   Clear
11:35 PM 10.4 °F -1.5 °F -7.6 °F 44% 30.71 in 10.0 mi SW 8.1 mph - N/A   Clear
11:55 PM 8.6 °F -3.7 °F -7.6 °F 48% 30.70 in 10.0 mi SW 8.1 mph - N/A   Clear